{"data":{"norad_id":81323,"epoch":"2026-09-17T11:22:01.770240Z","epoch_age_seconds":275990,"freshness":"STALE","line1":"1 81323U          26260.47363160  .00009479  00000+0  11839-2 0  9995","line2":"2 81323  65.7493 323.5842 0309245 166.2653 194.7113 14.54352087153501","mean_motion":14.54352087,"eccentricity":0.0309245,"inclination_deg":65.7493,"raan_deg":323.5842,"arg_perigee_deg":166.2653,"mean_anomaly_deg":194.7113,"bstar":0.0011839,"rev_number":15350,"period_min":99.013162828431,"perigee_km":492.22703991826,"apogee_km":930.71211719542,"semimajor_km":7089.6065785568,"source":"CELESTRAK","updated_at":"2026-09-20T09:00:32.385817Z"}}